Location: Unspecified
(0.0000°N, 0.0000°E)
Time: 19:02:51
(UTC+00:00)

Vanguard 2 - Pass Details

Date: 24 November 2019
Orbit: 553 x 2938 km, 32.9° (Epoch: 08 December)

Event Time Altitude Azimuth Distance (km) Brightness Sun altitude
Rises 16:28:31 0° 271° (W) 2,739 11.6 18.2°
Reaches altitude 10° 16:31:10 10° 250° (WSW) 1,940 12.3 17.6°
Maximum altitude 16:34:11 18° 206° (SSW) 1,647 10.1 16.9°
Drops below altitude 10° 16:37:51 10° 162° (SSE) 2,425 10.2 16.1°
Sets 16:41:44 0° 145° (SE) 3,755 10.9 15.2°
